[[{"header":{"parameterUnit":"m.s-1","parameterCategory":1,"la1":30.2991,"la2":30.254,"lo1":-89.0895,"lo2":-89.0444,"dy":0.0017,"dx":0.0017,"nx":28,"ny":28,"refTime":"2026-03-03T03:00:00:Z","depth":0,"parameterNumber":2,"parameterNumberName":"U-component_of_WINDS"},"data":[0,0,0,0,0,0,0,0,0,0,0,0,0,0,0,0,0,0,0,0,0,0,0,0,0,0,0,0,0,0,0,0,0,0,0,0,0,0,0,0,0,0,0,0,0,0,0,0,0,0,0,0,0,0,0,0,0,0,-2.9559,-2.9559,0,-2.9557,-2.9557,-2.9557,-2.9508,-2.9507,-2.9505,-2.9504,-2.9504,-2.9505,-2.9506,0,0,0,0,0,0,0,0,0,0,0,0,0,-2.9526,-2.9527,-2.9559,-2.9559,-2.9559,-2.9557,-2.9557,-2.9557,-2.9508,-2.9507,-2.9505,-2.9504,-2.9503,-2.9505,-2.9506,0,0,0,0,0,0,0,0,0,0,0,0,0,-2.9534,-2.9527,-2.9559,-2.9535,-2.9532,-2.9557,-2.9557,-2.9557,-2.9508,-2.9507,-2.9505,-2.9503,-2.9503,-2.9505,-2.9506,-2.9554,0,0,-2.9512,-2.9512,0,0,0,0,0,0,0,0,-2.9533,-2.9535,-2.9538,-2.9536,-2.9534,-2.9531,-2.9545,-2.9556,-2.9509,-2.9518,-2.9504,-2.9502,-2.9514,-2.9515,-2.9519,-2.9554,-2.9554,-2.9512,-2.9513,-2.9514,-2.9514,0,0,0,0,0,0,0,-2.9533,-2.9535,-2.9558,-2.9538,-2.9536,-2.9525,-2.9524,-2.9547,-2.9527,-2.9517,-2.9513,-2.9513,-2.9513,-2.9517,-2.9518,-2.9554,-2.9512,-2.9513,-2.9514,-2.9515,-2.9631,-2.9633,0,0,0,0,0,0,-2.9535,-2.9535,-2.9558,-2.9558,-2.9529,-2.9527,-2.9526,-2.9534,-2.9526,-2.9523,-2.9515,-2.9511,-2.9515,-2.9516,-2.9518,-2.9574,-2.9514,-2.9515,-2.9516,-2.9629,-2.9632,-2.9634,0,0,0,0,0,0,-2.9535,-2.9538,-2.9558,-2.9546,-2.9547,-2.953,-2.9539,-2.9535,-2.9539,-2.9525,-2.9521,-2.9523,-2.9514,-2.9516,-2.9546,-2.9573,-2.9516,-2.9517,-2.9627,-2.963,-2.9633,-2.9686,0,0,0,0,0,0,-2.9534,-2.9538,-2.9555,-2.9546,-2.9548,-2.9585,-2.954,-2.9536,-2.9542,-2.9536,-2.9531,-2.9529,-2.9512,-2.9544,-2.9548,-2.9575,-2.9519,-2.9624,-2.9628,-2.9632,-2.9682,-2.9691,-2.9698,0,0,0,0,0,-2.9533,-2.957,-2.9556,-2.9559,-2.9569,-2.9587,-2.9588,-2.9568,-2.9544,-2.9561,-2.9553,-2.9529,-2.9571,-2.9547,-2.9551,-2.9579,-2.9622,-2.9627,-2.9632,-2.9678,-2.9689,-2.9698,0,0,0,0,0,0,-2.9582,-2.9568,-2.9552,-2.9588,-2.9589,-2.9578,-2.9599,-2.958,-2.9588,-2.9583,-2.9559,-2.9558,-2.9592,-2.9589,-2.9563,-2.9627,-2.9592,-2.9598,-2.9626,-2.9637,-2.9645,-2.9644,-2.952,0,0,0,0,0,-2.9598,-2.9612,-2.96,-2.9632,-2.9634,-2.9617,-2.9624,-2.9609,-2.9609,-2.9609,-2.9603,-2.9605,-2.9619,-2.9628,-2.964,-2.9683,-2.9681,-2.9704,-2.9713,-2.9719,-2.9724,-2.9747,-2.9757,-2.9649,-2.9649,-2.9649,0,0,-2.9629,-2.9623,-2.9633,-2.9642,-2.9641,-2.9658,-2.9617,-2.9637,-2.9649,-2.9612,-2.964,-2.9636,-2.9637,-2.9674,-2.969,-2.9673,-2.9754,-2.9725,-2.9731,-2.9731,-2.9753,-2.9763,-2.9772,-2.9652,-2.9652,-2.9651,0,0,-2.9693,-2.969,-2.9717,-2.9717,-2.9717,-2.9706,-2.9713,-2.9706,-2.9702,-2.9729,-2.9702,-2.9718,-2.9742,-2.9744,-2.9748,-2.9817,-2.9795,-2.9822,-2.9864,-2.9887,-2.9896,-2.9903,-2.9927,-2.9936,-2.9827,-2.9828,-2.9828,0,-2.9731,-2.9754,-2.9734,-2.9755,-2.976,-2.9728,-2.9756,-2.9758,-2.9761,-2.9766,-2.9747,-2.9777,-2.9775,-2.9813,-2.983,-2.9835,-2.9842,-2.9821,-2.9896,-2.9903,-2.991,-2.9933,-2.9942,-2.9831,-2.983,-2.983,-2.983,0,-2.9802,-2.9819,-2.9841,-2.9845,-2.9853,-2.9877,-2.9861,-2.9872,-2.9858,-2.985,-2.9879,-2.9877,-2.9888,-2.9897,-2.9882,-2.9933,-2.9922,-2.99,-2.9865,-2.9924,-2.9945,-2.9953,-2.9835,-2.9834,-2.9833,-2.9832,0,0,-2.9894,-2.9888,-2.9896,-2.9898,-2.9896,-2.9909,-2.9934,-2.9945,-2.9955,-2.996,-2.9979,-3.0002,-2.9982,-2.9987,-2.9974,-2.9994,-3.0049,-2.997,-2.997,-2.9984,-3.0105,-3.012,-3.013,-3.0036,-3.0038,-3.0039,-3.0104,0,-2.9955,-2.9994,-2.9978,-3.0019,-3.0035,-3.0007,-3.0029,-3.0031,-3.0025,-3.0039,-3.0033,-3.0049,-3.0022,-3.0025,-3.0045,-3.0038,-3.0073,-3.0034,-3.0055,-3.0056,-3.0053,-3.0141,-3.0156,-3.0218,-3.0113,-3.0114,-3.0115,0,-3.0031,-3.0038,-3.0081,-3.0078,-3.0084,-3.0104,-3.0113,-3.0127,-3.013,-3.0124,-3.0131,-3.0114,-3.014,-3.0107,-3.0142,-3.0116,-3.0124,-3.0123,-3.0125,-3.0124,-3.0087,-3.0141,-3.0237,-3.0245,-3.0128,-3.0127,-3.0126,0,-3.0092,-3.0114,-3.0142,-3.0145,-3.0143,-3.0157,-3.0157,-3.0158,-3.0166,-3.0176,-3.0181,-3.0193,-3.02,-3.0211,-3.0198,-3.0176,-3.0235,-3.0201,-3.0231,-3.0232,-3.0243,-3.0242,-3.0339,-3.0252,-3.0252,-3.0252,-3.0251,0,-3.0161,-3.0188,-3.017,-3.0187,-3.0218,-3.02,-3.0231,-3.0228,-3.023,-3.0247,-3.0226,-3.0243,-3.0226,-3.0242,-3.0233,-3.0264,-3.0267,-3.0264,-3.0261,-3.0264,-3.0265,-3.0267,-3.0262,-3.0254,-3.0254,-3.0253,-3.0253,0,-3.0233,-3.0222,-3.0251,-3.0247,-3.0247,-3.027,-3.0267,-3.0284,-3.0278,-3.03,-3.0305,-3.0295,-3.0313,-3.0303,-3.0322,-3.0316,-3.0355,-3.0347,-3.0353,-3.035,-3.038,-3.0377,-3.0481,-3.0494,-3.0401,-3.0401,-3.0402,0,-3.0276,-3.0297,-3.0295,-3.0305,-3.0306,-3.0323,-3.0331,-3.0316,-3.0326,-3.0333,-3.0349,-3.0365,-3.0377,-3.0408,-3.0403,-3.0418,-3.0409,-3.0445,-3.0411,-3.0415,-3.0408,-3.0406,-3.0408,-3.0451,-3.0452,-3.0453,-3.0454,0,-3.0355,-3.0349,-3.0361,-3.0372,-3.0383,-3.0391,-3.0398,-3.0408,-3.0393,-3.0406,-3.0424,-3.0433,-3.0453,-3.0469,-3.0483,-3.0484,-3.0467,-3.0465,-3.0473,-3.0475,-3.0478,-3.0476,-3.037,-3.0462,-3.0461,-3.0461,-3.046,-3.046,-3.0412,-3.0429,-3.0431,-3.0447,-3.045,-3.0458,-3.0473,-3.047,-3.0484,-3.0498,-3.049,-3.0511,-3.0517,-3.0532,-3.0537,-3.0554,-3.054,-3.0551,-3.0553,-3.0556,-3.0559,-3.0477,-3.0557,-3.0557,-3.0556,-3.0556,-3.0556,0,-3.0488,-3.0489,-3.0503,-3.0513,-3.0526,-3.0509,-3.0517,-3.0528,-3.0547,-3.0553,-3.0566,-3.0588,-3.0605,-3.0603,-3.0619,-3.0633,-3.0626,-3.0638,-3.0635,-3.0636,-3.0572,-3.0563,-3.0643,-3.0643,-3.0643,-3.0643,-3.0643,-3.0643,-3.0529,-3.0556,-3.0552,-3.0582,-3.0583,-3.0603,-3.0609,-3.0616,-3.0621,-3.0646,-3.0659,-3.0658,-3.0662,-3.0678,-3.0693,-3.0693,-3.0699,-3.0714,-3.071,-3.0649,-3.064,-3.0632,-3.0623,-3.0716,-3.0716,-3.0772,-3.0773,-3.0773]},{"header":{"parameterUnit":"m.s-1","parameterCategory":1,"la1":30.2991,"la2":30.254,"lo1":-89.0895,"lo2":-89.0444,"dy":0.0017,"dx":0.0017,"nx":28,"ny":28,"refTime":"2026-03-03T03:00:00:Z","depth":0,"parameterNumber":3,"parameterNumberName":"V-component_of_WINDS"},"data":[0,0,0,0,0,0,0,0,0,0,0,0,0,0,0,0,0,0,0,0,0,0,0,0,0,0,0,0,0,0,0,0,0,0,0,0,0,0,0,0,0,0,0,0,0,0,0,0,0,0,0,0,0,0,0,0,0,0,1.9069,1.9069,0,1.909,1.909,1.9091,1.9198,1.92,1.9203,1.9205,1.9221,1.9219,1.9217,0,0,0,0,0,0,0,0,0,0,0,0,0,1.9116,1.9115,1.9069,1.9069,1.9069,1.909,1.909,1.9091,1.9197,1.92,1.9204,1.9207,1.9222,1.922,1.9217,0,0,0,0,0,0,0,0,0,0,0,0,0,1.9112,1.9115,1.9069,1.9125,1.9131,1.909,1.909,1.9091,1.9197,1.9201,1.9204,1.9208,1.9223,1.922,1.9217,1.9122,0,0,1.9208,1.9207,0,0,0,0,0,0,0,0,1.9112,1.911,1.9117,1.9121,1.9127,1.9145,1.9113,1.9101,1.9196,1.9171,1.9205,1.921,1.9192,1.9192,1.9188,1.9123,1.9123,1.9208,1.9206,1.9205,1.9204,0,0,0,0,0,0,0,1.9113,1.911,1.9077,1.9117,1.9123,1.9148,1.9152,1.9111,1.916,1.9174,1.9182,1.9183,1.9196,1.919,1.9189,1.9123,1.9208,1.9205,1.9203,1.9202,1.8983,1.8979,0,0,0,0,0,0,1.9106,1.911,1.9076,1.9078,1.9129,1.9144,1.9148,1.9136,1.9161,1.9168,1.918,1.9188,1.9193,1.9192,1.919,1.9081,1.9205,1.9202,1.92,1.8987,1.8982,1.8978,0,0,0,0,0,0,1.9106,1.9102,1.9076,1.9096,1.9095,1.9139,1.9124,1.9134,1.9128,1.9165,1.9174,1.9165,1.9196,1.9194,1.9139,1.9083,1.92,1.9198,1.8992,1.8986,1.898,1.8862,0,0,0,0,0,0,1.9107,1.9101,1.9066,1.9094,1.9093,1.9025,1.9121,1.9132,1.9124,1.9135,1.9154,1.9161,1.9199,1.9143,1.9136,1.9081,1.9195,1.8997,1.8989,1.8982,1.8871,1.8853,1.8837,0,0,0,0,0,1.9108,1.9031,1.9064,1.9059,1.9051,1.9022,1.9021,1.9068,1.9119,1.9084,1.9108,1.916,1.9091,1.9136,1.9129,1.9073,1.9001,1.8991,1.8983,1.8879,1.8857,1.8838,0,0,0,0,0,0,1.8992,1.9035,1.9073,1.9002,1.9008,1.904,1.8997,1.9043,1.9032,1.9043,1.9101,1.9104,1.904,1.9051,1.9101,1.8983,1.9055,1.9044,1.8978,1.8957,1.8941,1.8939,1.9193,0,0,0,0,0,1.8959,1.8933,1.8972,1.8905,1.8907,1.8951,1.894,1.8977,1.8984,1.8986,1.9006,1.901,1.8989,1.8974,1.8957,1.8874,1.888,1.8832,1.8815,1.8801,1.879,1.8748,1.8728,1.8948,1.8948,1.8948,0,0,1.8888,1.8909,1.8889,1.8883,1.8891,1.8862,1.8952,1.8917,1.8896,1.898,1.893,1.8945,1.8953,1.8884,1.8854,1.8891,1.8731,1.8789,1.8778,1.8775,1.8737,1.8716,1.8697,1.8942,1.8943,1.8944,0,0,1.8746,1.8759,1.8706,1.8714,1.8727,1.8757,1.8744,1.877,1.8784,1.8735,1.8798,1.8773,1.8736,1.8739,1.8736,1.8597,1.8645,1.859,1.85,1.8459,1.8441,1.8426,1.8377,1.8359,1.858,1.8579,1.8579,0,1.8656,1.8617,1.8672,1.8634,1.863,1.8708,1.8654,1.8658,1.8663,1.8658,1.87,1.8656,1.8667,1.86,1.8567,1.8561,1.8548,1.8588,1.844,1.8425,1.8412,1.8366,1.8347,1.8573,1.8573,1.8574,1.8575,0,1.8507,1.8478,1.8434,1.844,1.8431,1.8385,1.8432,1.8416,1.8454,1.8479,1.8429,1.8445,1.8433,1.842,1.8455,1.8358,1.8381,1.843,1.8503,1.8383,1.8341,1.8323,1.8563,1.8565,1.8567,1.8569,0,0,1.8289,1.833,1.8312,1.8317,1.8338,1.8316,1.8274,1.8265,1.825,1.8251,1.8217,1.8185,1.8232,1.8228,1.8264,1.8228,1.8117,1.8282,1.8283,1.8251,1.8012,1.7975,1.7953,1.815,1.8147,1.8144,1.8012,0,1.8154,1.8086,1.8135,1.8058,1.8033,1.8107,1.8071,1.8079,1.8102,1.8083,1.8108,1.8085,1.8148,1.8146,1.8114,1.8138,1.807,1.8148,1.8117,1.8116,1.8113,1.7931,1.7891,1.7765,1.7995,1.7993,1.7991,0,1.7986,1.7983,1.7904,1.7932,1.7924,1.789,1.7886,1.7867,1.7878,1.7898,1.7895,1.7941,1.7901,1.7973,1.7918,1.797,1.7961,1.7971,1.7967,1.7966,1.8045,1.7924,1.7726,1.7707,1.7965,1.7967,1.7969,0,1.7836,1.7812,1.7763,1.7764,1.7796,1.777,1.7782,1.7797,1.7789,1.7785,1.778,1.777,1.7765,1.7756,1.7799,1.7847,1.7738,1.7814,1.7752,1.7751,1.7725,1.7726,1.7522,1.7719,1.7719,1.772,1.772,0,1.7679,1.7628,1.7696,1.7665,1.761,1.7667,1.7611,1.763,1.7643,1.7616,1.7679,1.7653,1.7711,1.769,1.7723,1.7672,1.7669,1.7683,1.7692,1.7677,1.7675,1.7671,1.7681,1.7715,1.7716,1.7717,1.7717,0,1.7502,1.7546,1.7497,1.7532,1.7539,1.7497,1.7526,1.7498,1.7527,1.7493,1.7488,1.7531,1.751,1.7552,1.7536,1.7558,1.7487,1.751,1.7484,1.7491,1.7427,1.7432,1.7213,1.7187,1.74,1.7398,1.7396,0,1.7399,1.7362,1.7394,1.7382,1.7391,1.737,1.7363,1.7418,1.7407,1.7418,1.7389,1.7374,1.7364,1.7327,1.7356,1.7344,1.7367,1.7291,1.7365,1.7352,1.7366,1.7368,1.7364,1.7275,1.7273,1.7271,1.7269,0,1.7211,1.7236,1.7224,1.722,1.7211,1.7209,1.7213,1.7199,1.7257,1.7242,1.7223,1.7215,1.7201,1.7184,1.718,1.719,1.7238,1.7246,1.7231,1.7215,1.7201,1.7208,1.7442,1.725,1.7252,1.7253,1.7254,1.7255,1.7068,1.7039,1.7058,1.7043,1.7052,1.7054,1.7031,1.7057,1.7043,1.7036,1.7069,1.7042,1.7055,1.7054,1.706,1.7039,1.7073,1.7051,1.7046,1.7039,1.7029,1.7205,1.7038,1.7039,1.7039,1.704,1.704,0,1.6884,1.6901,1.6887,1.6891,1.6879,1.6929,1.6935,1.6922,1.6898,1.6907,1.6898,1.6875,1.686,1.6889,1.6879,1.6856,1.6878,1.6851,1.6853,1.6855,1.6999,1.7013,1.6834,1.6834,1.6834,1.6834,1.6834,1.6834,1.6787,1.6741,1.6768,1.6727,1.6743,1.6719,1.6719,1.6721,1.6729,1.6702,1.6691,1.6711,1.6727,1.6719,1.6707,1.6716,1.6709,1.6674,1.6691,1.6825,1.6845,1.6864,1.6878,1.6672,1.6672,1.6548,1.6547,1.6546]}]]